Merzifon, Turkey

3:14 PM +03 on December 17, 2017 (GMT +0300)
Merzifon Air Base

Weather History for LTAP - April, 2013

Change the Weather History Date:

Wednesday, April 3, 2013

  Actual Average Record
Temperature  
Mean Temperature 54 °F -  
Max Temperature 71 °F 62 °F 71 °F (2013)
Min Temperature 37 °F 39 °F 24 °F (2012)
Degree Days  
Heating Degree Days 11    
Growing Degree Days 4 (Base 50)    
Moisture  
Dew Point 45 °F    
Average Humidity 72    
Maximum Humidity 100    
Minimum Humidity 40    
Precipitation  
Precipitation 0.00 in - - ()
Sea Level Pressure  
Sea Level Pressure 29.82 in    
Wind  
Wind Speed 1 mph ()    
Max Wind Speed 13 mph    
Max Gust Speed -    
Visibility 5.6 miles    
Events      
Averages and records for this station are not official NWS values.
T = Trace of Precipitation, MM = Missing Value Source: Averaged Metar Reports

Daily Weather History Graph

Daily Weather History Graph

Search for Another Location

Airport or City:

Trip Planner

Search our weather history database for the weather conditions in past years. The results will help you decide how hot, cold, wet, or windy it might be!

Date:

Astronomy

Apr. 03, 2013 Rise Set
Actual Time 6:17 AM EEST 7:04 PM EEST
Civil Twilight 5:50 AM EEST 7:32 PM EEST
Nautical Twilight 5:17 AM EEST 8:05 PM EEST
Astronomical Twilight 4:43 AM EEST 8:39 PM EEST
Moon 1:44 AM EEST (4/3) 11:51 AM EEST (4/3)
Length of Visible Light 13h 42m
Length of Day
12h 46m
Waning Gibbous, 48% of the Moon is Illuminated
Apr 3
Waning Gibbous
Apr 10
New
Apr 18
First Quarter
Apr 25
Full
May 2
Last Quarter

Hourly Weather History & Observations

Time (EEST) Temp. Windchill Dew Point Humidity Pressure Visibility Wind Dir Wind Speed Gust Speed Precip Events Conditions
12:20 AM 48.2 °F - 44.6 °F 87% 29.89 in 6.2 mi West 2.3 mph - N/A   Partly Cloudy
12:50 AM 46.4 °F - 44.6 °F 93% 29.89 in 6.2 mi West 1.2 mph - N/A   Partly Cloudy
1:20 AM 42.8 °F - 41.0 °F 93% 29.89 in 6.2 mi West 1.2 mph - N/A   Partly Cloudy
1:50 AM 42.8 °F - 41.0 °F 93% 29.89 in 6.2 mi Variable 1.2 mph - N/A   Partly Cloudy
2:20 AM 41.0 °F - 39.2 °F 93% 29.89 in 6.2 mi Calm Calm - N/A   Partly Cloudy
3:20 AM 39.2 °F - 37.4 °F 93% 29.89 in 6.2 mi Calm Calm - N/A   Partly Cloudy
3:50 AM 37.4 °F - 37.4 °F 100% 29.89 in 6.2 mi Calm Calm - N/A   Partly Cloudy
4:20 AM 39.2 °F - 37.4 °F 93% 29.89 in 6.2 mi Calm Calm - N/A   Partly Cloudy
4:50 AM 37.4 °F - 37.4 °F 100% 29.89 in 6.2 mi Calm Calm - N/A   Partly Cloudy
5:20 AM 39.2 °F - 37.4 °F 93% 29.89 in 6.2 mi Calm Calm - N/A   Partly Cloudy
5:50 AM 37.4 °F - 35.6 °F 93% 29.89 in 6.2 mi Calm Calm - N/A   Partly Cloudy
6:20 AM 37.4 °F - 37.4 °F 100% 29.89 in 6.2 mi West 1.2 mph - N/A   Partly Cloudy
6:50 AM 39.2 °F 35.9 °F 39.2 °F 100% 29.89 in 6.2 mi WNW 4.6 mph - N/A   Partly Cloudy
7:20 AM 42.8 °F - 41.0 °F 93% 29.92 in 6.2 mi Calm Calm - N/A   Partly Cloudy
7:50 AM 46.4 °F - 42.8 °F 87% 29.92 in 6.2 mi Calm Calm - N/A   Partly Cloudy
8:20 AM 48.2 °F - 44.6 °F 87% 29.89 in 6.2 mi Calm Calm - N/A   Partly Cloudy
8:50 AM 51.8 °F - 46.4 °F 82% 29.89 in 6.2 mi Calm Calm - N/A   Partly Cloudy
9:20 AM 53.6 °F - 46.4 °F 77% 29.89 in 6.2 mi Variable 1.2 mph - N/A   Partly Cloudy
9:50 AM 55.4 °F - 46.4 °F 72% 29.86 in - Calm Calm - N/A   Clear
10:20 AM 57.2 °F - 48.2 °F 72% 29.86 in - Calm Calm - N/A   Clear
10:50 AM 60.8 °F - 48.2 °F 63% 29.86 in - Calm Calm - N/A   Clear
11:20 AM 62.6 °F - 50.0 °F 63% 29.83 in - Calm Calm - N/A   Clear
11:50 AM 62.6 °F - 48.2 °F 59% 29.83 in - Variable 1.2 mph - N/A   Clear
12:20 PM 66.2 °F - 48.2 °F 52% 29.80 in - Calm Calm - N/A   Clear
12:50 PM 68.0 °F - 46.4 °F 46% 29.80 in - Calm Calm - N/A   Clear
1:20 PM 68.0 °F - 46.4 °F 46% 29.80 in - Variable 1.2 mph - N/A   Clear
1:50 PM 69.8 °F - 50.0 °F 49% 29.77 in - Calm Calm - N/A   Clear
2:20 PM 71.6 °F - 48.2 °F 43% 29.77 in - Calm Calm - N/A   Clear
2:50 PM 69.8 °F - 48.2 °F 46% 29.77 in - Calm Calm - N/A   Clear
3:20 PM 71.6 °F - 46.4 °F 41% 29.77 in - Calm Calm - N/A   Clear
3:50 PM 69.8 °F - 46.4 °F 43% 29.77 in - West 11.5 mph - N/A   Clear
4:20 PM 69.8 °F - 44.6 °F 40% 29.77 in 5.6 mi West 12.7 mph - N/A   Unknown
4:50 PM 69.8 °F - 44.6 °F 40% 29.74 in 4.3 mi West 8.1 mph - N/A   Unknown
5:20 PM 69.8 °F - 48.2 °F 46% 29.74 in 5.0 mi WSW 3.5 mph - N/A   Unknown
5:50 PM 69.8 °F - 46.4 °F 43% 29.74 in 5.0 mi SW 1.2 mph - N/A   Unknown
6:20 PM 68.0 °F - 44.6 °F 43% 29.74 in 4.3 mi Calm Calm - N/A   Unknown
6:50 PM 66.2 °F - 51.8 °F 60% 29.74 in 5.0 mi Calm Calm - N/A   Unknown
7:20 PM 59.0 °F - 51.8 °F 77% 29.74 in 3.7 mi NNW 2.3 mph - N/A   Unknown
7:50 PM 59.0 °F - 50.0 °F 72% 29.74 in 3.7 mi WNW 4.6 mph - N/A   Unknown
8:20 PM 59.0 °F - 48.2 °F 67% 29.74 in 5.6 mi Calm Calm - N/A   Unknown
8:50 PM 55.4 °F - 48.2 °F 77% 29.74 in 5.6 mi NNW 6.9 mph - N/A   Unknown
9:20 PM 55.4 °F - 48.2 °F 77% 29.77 in 5.6 mi Calm Calm - N/A   Unknown
9:50 PM 55.4 °F - 48.2 °F 77% 29.74 in 5.0 mi Calm Calm - N/A   Unknown
10:20 PM 55.4 °F - 46.4 °F 72% 29.74 in 5.0 mi Calm Calm - N/A   Unknown
10:50 PM 53.6 °F - 46.4 °F 77% 29.74 in - WNW 4.6 mph - N/A   Clear
11:20 PM 53.6 °F - 46.4 °F 77% 29.74 in - WNW 4.6 mph - N/A   Clear
11:50 PM 51.8 °F - 46.4 °F 82% 29.74 in - NW 4.6 mph - N/A   Clear